Theta_e
304 304 304 304 304 304 304 304 304 304 304 304 304 304 306 307 307 306 303 305 307 308 309 310 313 314 314 314 314 314 315 314 315 315 316 316 316 317 318 318 318 319 319 320 319 319 319 317 318 321 324 328 328 328 329 329 328 329 328 327 329 330 327 322 320 325 328 330 330 330 330 329 326 326 326 325 324 321 320 324 329 324 319 322 321 318 328
304 304 304 304 304 304 304 304 304 304 304 304 304 305 305 306 306 306 305 307 309 309 310 310 311 312 312 312 311 312 313 313 313 314 314 315 316 316 317 317 318 318 318 318 320 319 318 318 318 320 321 323 325 327 328 328 330 330 329 329 328 326 326 324 321 322 323 326 328 327 326 327 326 326 326 326 326 325 322 325 328 324 320 323 322 319 328
303 303 304 304 304 304 304 304 304 304 304 304 304 305 305 306 306 307 307 308 309 309 310 310 310 310 310 310 311 312 314 314 313 314 314 314 315 315 315 315 316 316 315 316 318 318 319 321 320 319 320 320 321 324 326 327 327 328 332 335 329 325 328 326 321 319 319 320 322 323 323 324 326 327 327 326 326 325 322 320 321 324 326 325 321 321 333
302 303 303 303 303 303 304 304 304 304 304 304 304 304 305 305 306 307 307 308 308 309 309 309 309 310 310 311 312 312 312 313 313 313 313 313 314 314 313 314 315 314 314 315 317 318 319 320 321 321 322 322 322 322 321 323 325 333 342 341 331 328 331 329 324 322 322 323 326 330 329 324 322 325 326 327 327 325 324 319 317 323 329 327 327 329 333
302 302 303 303 303 303 303 304 304 304 304 304 304 304 305 305 306 306 307 308 308 308 308 309 309 310 310 310 311 310 310 311 311 312 312 313 313 313 312 313 313 312 313 314 315 316 317 318 319 318 317 317 318 318 320 322 325 333 342 341 336 331 328 328 329 326 327 331 333 334 332 326 323 324 325 326 328 326 324 320 318 323 322 322 334 342 331
302 303 303 303 303 303 303 304 304 304 304 304 304 304 304 305 305 306 307 307 307 307 308 309 308 308 309 309 309 309 309 310 310 311 312 312 312 312 312 312 312 312 312 313 314 315 316 318 317 316 316 316 317 317 318 321 324 326 328 333 340 337 329 328 329 327 327 330 331 331 332 330 327 327 326 326 327 326 323 322 324 327 323 320 333 347 340
303 303 303 303 303 303 303 303 303 304 304 304 304 304 304 305 305 306 306 306 307 307 308 308 308 308 308 308 308 308 308 309 309 310 310 310 310 311 311 311 311 311 312 312 313 315 316 317 316 315 315 315 316 317 318 320 322 321 321 327 335 338 336 334 328 326 327 328 329 329 329 329 328 328 328 328 328 327 325 326 326 328 329 327 330 343 351
303 303 303 303 303 303 303 303 303 304 304 304 304 304 304 305 305 306 306 306 307 307 307 308 308 308 308 308 308 308 308 308 308 309 309 309 309 309 310 310 310 311 312 312 313 313 314 314 313 313 313 314 315 317 318 319 320 319 321 323 327 331 337 339 331 326 325 326 328 328 327 328 326 326 329 328 327 327 325 327 328 327 330 333 331 336 345
303 303 303 303 303 303 303 303 303 303 304 304 304 304 304 304 305 305 305 305 306 307 307 307 307 307 307 307 308 307 307 308 308 308 309 309 309 309 309 310 311 311 312 312 312 312 312 312 312 312 312 313 314 316 317 318 318 319 322 323 324 328 333 337 335 329 326 327 328 327 327 327 323 324 328 327 326 326 325 326 328 327 329 333 331 329 333
303 303 303 303 303 303 303 303 303 303 304 304 304 304 304 304 304 304 304 305 306 306 306 306 306 307 307 307 307 307 307 307 307 308 308 309 309 309 310 311 312 312 311 311 312 312 312 312 312 312 313 313 314 315 316 318 318 320 322 323 325 328 329 332 333 328 326 328 327 326 325 323 320 323 328 329 329 328 328 328 329 329 328 329 331 335 340
303 303 303 303 303 303 303 303 303 303 303 304 304 304 304 304 304 304 304 305 306 306 305 306 306 307 307 307 307 307 306 307 307 307 308 308 309 309 310 310 311 312 311 311 311 312 312 312 312 312 313 314 315 316 316 318 319 321 322 323 326 328 329 332 332 326 325 328 329 328 323 319 321 327 329 331 332 329 329 329 329 330 329 327 331 340 342
303 303 303 303 303 303 303 303 303 303 303 304 304 304 304 304 304 304 304 304 305 305 305 306 306 306 307 307 306 306 306 307 307 307 307 308 308 309 309 310 311 312 311 311 311 312 312 312 312 313 313 313 315 317 317 318 319 321 322 322 325 328 331 333 334 329 327 331 330 326 323 323 327 333 332 330 331 331 332 334 332 332 333 332 331 333 337
303 303 302 303 303 303 303 303 303 304 304 303 303 304 304 304 304 304 304 304 305 305 305 305 306 306 307 307 306 306 307 307 307 307 307 308 308 309 309 309 310 311 310 310 311 312 312 313 314 314 314 314 316 317 317 318 318 319 320 322 325 330 331 334 335 330 327 329 328 324 327 331 334 336 334 333 335 334 331 331 336 337 337 339 342 342 346
303 303 303 303 303 303 303 304 304 304 304 303 303 304 304 304 304 303 304 304 304 305 305 305 306 306 306 306 306 307 307 307 307 308 308 308 308 309 310 310 310 310 310 310 312 314 314 314 315 316 316 316 317 318 318 318 319 319 320 322 325 329 331 336 338 332 326 325 325 326 327 330 333 335 336 337 340 341 341 339 341 343 342 343 348 350 350
303 303 303 303 303 303 303 304 303 304 304 303 303 304 304 304 304 304 304 304 304 305 305 305 306 306 306 306 306 306 306 306 307 308 308 308 309 309 309 310 311 311 310 311 316 318 315 313 315 318 319 319 319 321 321 320 321 320 321 324 327 328 331 337 338 336 332 326 323 326 325 324 330 336 337 337 337 341 351 350 345 347 346 344 349 352 351
303 303 303 303 303 303 303 303 303 303 303 303 303 304 304 304 304 304 304 304 304 304 305 305 305 306 306 306 306 306 306 307 307 307 307 308 309 309 308 309 311 312 311 312 316 318 315 313 315 318 320 320 321 322 323 322 322 322 322 324 327 328 331 335 335 336 336 329 323 323 322 326 339 344 337 332 335 339 343 342 341 350 351 345 348 352 352
303 303 303 303 303 303 303 303 303 303 303 303 303 304 304 303 304 304 304 304 304 304 305 305 305 305 306 306 306 306 307 307 307 307 307 307 308 308 309 309 310 311 312 313 315 316 315 314 316 317 319 319 319 322 323 322 323 324 324 324 326 329 334 333 329 330 334 332 327 324 325 335 347 344 335 332 336 339 339 335 339 352 353 347 349 352 351
303 303 303 303 303 303 303 303 303 303 303 303 303 304 304 304 304 304 304 303 303 304 304 304 305 306 306 306 306 306 307 307 307 307 307 307 308 309 310 309 310 311 312 313 314 315 315 315 316 317 317 318 318 321 323 323 324 325 324 324 325 329 334 334 331 329 329 332 332 328 332 346 350 339 335 335 336 339 337 336 345 352 350 348 349 349 350
303 303 303 303 303 303 303 303 303 303 303 303 303 304 304 304 303 304 304 303 303 304 304 304 305 306 306 306 306 306 307 307 307 308 307 307 308 308 308 308 310 310 311 312 313 313 314 315 316 316 317 318 318 321 323 324 325 324 324 327 328 329 332 335 337 335 328 329 335 334 335 345 346 337 335 336 340 343 341 343 350 351 347 349 348 346 349
303 303 303 303 303 303 303 303 303 303 303 303 303 303 303 303 303 303 304 303 303 304 304 304 305 306 306 306 306 306 307 307 307 308 308 308 308 307 308 310 310 310 311 312 313 313 313 314 315 314 316 318 320 324 325 324 324 323 324 328 331 332 335 335 336 337 332 330 336 339 340 342 340 340 346 349 351 351 348 346 348 348 347 348 346 346 348
303 303 303 303 303 303 303 303 303 303 303 303 303 303 303 303 303 304 304 303 304 304 304 304 305 305 306 306 307 307 307 307 307 308 308 307 307 307 308 310 311 310 311 312 313 313 313 314 314 315 317 320 323 326 327 326 325 324 325 330 332 332 335 336 335 336 336 333 334 337 339 341 338 341 350 351 350 349 348 346 345 345 346 345 343 344 347
303 303 303 303 303 303 303 303 303 303 303 303 303 303 303 303 304 304 304 303 303 304 304 304 304 304 304 305 305 305 305 306 306 307 307 307 307 307 307 309 310 310 310 310 311 312 313 313 315 316 319 322 323 324 325 327 327 325 325 331 333 331 332 334 334 335 337 336 335 336 336 338 339 340 345 346 345 345 344 342 342 342 342 342 340 341 343
303 303 303 302 303 303 303 303 303 303 303 303 303 303 303 303 303 304 304 304 303 304 304 304 304 305 305 305 305 305 306 306 306 306 306 306 307 307 307 308 309 309 309 309 310 312 312 312 314 316 318 320 321 323 325 327 327 326 325 328 330 329 330 332 334 334 334 334 335 337 336 335 336 340 343 343 342 341 339 338 338 337 338 338 338 338 339
302 302 302 302 303 303 303 303 303 303 303 303 303 303 303 303 303 304 304 304 304 304 304 305 305 306 306 306 306 306 307 307 307 307 307 307 307 307 307 308 309 310 309 308 309 311 312 312 314 316 317 319 320 322 324 326 325 325 325 324 325 327 329 331 333 335 335 336 337 338 336 334 335 339 341 340 338 338 337 336 336 336 335 335 336 337 337
302 302 302 302 303 303 303 303 303 303 302 302 302 302 303 303 304 304 304 304 304 304 305 305 305 306 306 306 307 307 307 307 307 307 307 307 307 308 308 308 309 310 309 309 309 311 312 313 314 315 316 318 320 320 323 325 324 323 323 324 325 327 329 330 333 335 336 338 339 337 335 334 333 336 338 337 336 335 335 334 334 333 333 333 333 334 334
302 302 302 302 302 303 303 303 303 303 302 302 302 302 303 303 303 304 304 304 304 304 304 304 305 305 306 307 307 307 307 307 307 307 307 307 308 308 308 308 308 308 308 308 310 311 313 313 314 315 316 317 319 320 321 323 324 324 324 324 324 327 329 330 332 333 335 338 339 337 338 337 333 332 334 334 333 333 332 332 331 330 330 330 330 331 332
302 302 302 302 302 303 303 303 303 303 302 302 302 302 302 303 303 304 304 304 304 304 305 305 305 306 306 306 306 306 307 307 307 307 307 307 308 308 308 308 308 308 308 308 309 310 313 314 314 315 316 316 317 318 320 322 324 325 326 326 325 327 329 331 332 334 336 338 337 335 337 338 334 330 330 331 331 331 330 329 328 328 328 328 328 328 329
303 303 302 302 302 302 302 302 302 302 302 302 302 302 302 303 304 304 305 305 304 305 305 305 305 305 306 306 306 307 307 307 307 307 307 307 308 308 308 309 308 308 308 308 309 312 315 315 314 315 316 316 317 318 320 322 324 325 326 326 326 327 329 330 332 332 333 334 332 332 334 335 331 328 329 329 328 328 328 326 325 325 325 326 326 326 326
302 302 303 303 302 302 302 302 302 302 302 302 302 302 303 304 305 305 305 305 305 305 305 305 305 305 306 306 307 307 308 308 308 308 308 307 307 308 308 308 308 308 308 308 309 313 314 314 314 315 316 316 317 319 321 322 324 325 326 327 326 326 327 328 329 330 330 330 330 331 333 332 328 327 328 329 328 328 328 327 326 326 325 324 323 322 322
302 303 303 303 302 302 302 302 302 302 302 302 302 303 305 305 305 305 305 305 305 304 304 305 305 305 306 307 307 307 308 309 309 309 309 309 308 308 308 308 308 308 309 309 310 313 314 314 314 315 316 316 317 319 321 323 325 326 327 327 326 326 327 327 327 328 328 328 329 331 332 330 327 327 328 328 329 329 330 329 328 328 327 325 323 322 321
303 303 303 303 302 303 303 303 302 302 302 302 303 304 306 306 306 305 305 305 304 304 304 305 305 306 307 307 308 309 310 310 310 311 311 310 310 309 308 308 308 309 309 309 311 313 314 314 314 314 316 317 318 319 321 322 324 325 327 327 326 326 326 325 325 326 328 329 330 331 330 328 327 327 327 328 328 328 328 329 328 327 327 326 326 324 323
304 303 303 303 303 303 303 303 303 303 303 302 303 303 304 305 305 305 305 304 303 304 305 305 306 306 307 307 309 310 310 311 312 312 312 311 311 310 309 308 308 309 309 311 313 315 315 315 315 315 317 317 318 320 321 321 322 324 326 326 325 324 324 325 326 328 329 330 331 330 329 328 328 327 327 327 327 326 326 326 325 324 324 323 323 324 324
304 303 303 303 304 304 304 305 305 305 304 304 304 304 304 305 305 305 304 303 303 304 305 305 306 306 307 308 309 310 310 311 313 313 313 312 311 310 309 308 308 309 311 312 314 315 315 315 315 316 317 317 318 319 321 321 322 324 325 325 324 323 323 325 327 328 328 329 329 329 328 327 326 326 325 325 324 324 323 322 320 319 318 318 318 320 322
305 304 303 304 305 306 306 306 306 306 306 305 306 307 307 307 306 306 305 304 304 304 305 305 306 307 307 308 311 311 311 312 313 313 314 313 311 311 312 311 310 312 314 313 314 315 315 315 315 316 317 318 318 319 320 322 323 324 324 324 323 322 323 325 326 326 327 327 327 327 326 326 325 324 324 323 322 322 321 320 318 316 316 316 317 317 318
305 305 305 306 307 308 308 308 308 307 307 306 307 308 308 307 307 306 306 305 305 306 306 306 307 308 308 309 311 311 310 312 313 313 313 313 312 312 314 315 315 315 315 314 314 315 316 315 315 317 318 319 318 319 321 322 323 323 323 323 321 321 322 324 325 326 326 326 325 324 324 324 324 323 322 321 321 320 320 320 319 317 317 317 317 317 317
305 306 307 307 308 309 309 309 309 308 308 308 308 307 307 306 306 306 306 305 305 306 307 308 308 309 309 310 311 310 309 311 314 313 312 313 313 313 313 314 316 316 314 315 316 316 316 315 316 318 319 319 319 320 321 322 322 322 322 321 320 320 321 323 324 326 326 326 325 324 324 324 325 325 324 322 322 320 320 320 319 319 319 320 319 318 319
307 308 309 309 309 310 310 310 309 309 308 308 308 307 307 307 307 307 307 307 306 306 307 307 308 308 309 310 310 309 309 311 313 314 313 314 315 314 313 314 315 315 315 316 316 316 315 315 315 316 317 318 319 320 321 321 321 321 320 319 320 321 323 323 323 324 325 325 325 325 325 325 326 326 326 325 324 323 322 322 321 321 321 322 322 322 322
309 310 310 309 310 310 311 310 310 310 309 309 309 308 308 308 309 309 308 308 308 308 307 307 307 308 309 310 310 310 310 312 313 315 315 314 314 315 315 315 315 315 315 315 315 314 314 314 314 314 316 318 319 319 320 320 320 320 319 320 321 322 323 323 322 322 323 324 324 324 325 325 325 325 326 326 326 325 324 324 323 322 323 324 325 325 325
310 310 310 310 311 311 311 310 310 310 310 310 310 309 309 310 310 310 310 309 309 309 309 309 308 309 310 311 311 311 312 313 314 316 316 315 314 316 316 315 315 314 314 314 314 313 314 314 314 314 316 318 319 320 319 319 320 320 320 321 322 321 321 321 322 322 322 323 322 322 323 324 325 325 325 325 325 325 325 325 324 324 324 325 325 326 326
310 311 311 311 311 311 311 311 311 311 311 311 311 310 311 311 310 311 311 311 310 310 311 311 310 310 310 311 312 312 313 313 314 316 317 315 314 314 314 314 313 313 314 315 314 314 315 315 315 314 316 318 319 320 320 320 319 319 320 321 321 320 320 320 322 322 322 322 322 322 323 324 324 325 325 325 326 325 325 325 325 325 325 326 326 327 327
311 311 311 311 311 311 311 311 312 312 312 312 312 311 311 311 311 311 312 312 313 314 313 312 313 314 313 312 312 313 314 314 314 315 316 315 314 314 314 313 313 314 315 315 314 316 318 317 314 314 316 318 319 320 320 319 318 318 319 320 320 320 319 321 322 322 323 323 323 323 324 324 324 325 325 326 326 326 326 326 326 326 326 327 327 327 327
312 312 312 311 310 310 311 312 312 313 312 312 311 311 311 312 313 313 312 313 315 316 314 312 313 315 315 314 314 315 316 316 316 316 317 317 316 316 317 316 315 316 317 316 317 319 320 317 315 316 317 318 319 320 320 319 319 320 320 321 321 320 320 321 322 323 323 323 323 323 324 324 325 325 325 325 326 326 326 326 326 326 327 327 327 327 327
313 312 312 311 311 311 311 311 311 311 310 310 310 311 312 313 313 314 315 315 314 315 315 313 313 315 316 316 316 317 317 316 316 317 318 318 318 318 320 319 317 317 318 319 320 320 318 317 318 319 319 319 320 321 320 320 321 321 321 321 321 321 321 321 322 322 323 323 323 323 324 324 325 325 325 325 325 326 326 326 326 326 326 327 327 327 327
313 312 312 312 311 311 311 311 311 311 311 310 310 312 314 314 313 314 316 316 314 314 316 315 315 317 318 317 316 317 318 317 317 317 319 320 320 321 320 319 319 320 321 320 319 318 316 317 320 320 319 319 320 320 320 321 321 321 321 321 321 321 322 321 322 322 322 322 323 323 323 324 324 324 324 325 325 325 325 325 325 325 325 326 326 327 327
313 313 313 312 311 311 312 312 311 312 313 312 311 312 314 315 314 314 315 316 315 315 317 316 316 318 319 318 317 318 318 318 319 320 320 321 321 321 320 320 321 322 321 319 318 317 317 318 320 321 320 320 320 320 320 320 320 320 321 321 321 321 322 321 322 322 322 323 323 323 323 323 323 324 324 324 324 324 324 324 324 325 325 325 326 326 326
314 313 312 312 311 311 313 313 312 312 314 315 314 314 315 315 314 314 315 316 316 317 317 317 317 318 319 319 319 319 318 318 320 321 321 322 322 321 321 321 321 321 319 318 317 316 317 319 321 321 321 321 320 320 320 321 320 320 321 321 320 321 321 321 322 322 322 322 323 323 323 323 323 323 323 323 323 323 324 324 324 324 324 324 325 325 325
314 312 311 312 312 312 313 315 314 313 313 314 314 315 316 316 315 316 316 317 317 318 318 317 318 319 319 319 320 320 319 320 322 322 320 320 321 321 322 322 320 319 319 318 317 317 318 320 321 321 321 321 320 320 320 321 321 321 321 321 321 321 322 322 322 322 322 322 323 323 323 323 323 322 322 322 322 322 322 322 323 323 323 323 323 323 324
313 312 311 312 313 314 314 314 314 313 313 314 314 315 317 317 317 318 318 318 317 317 318 318 319 319 319 319 320 321 321 322 323 322 320 321 321 322 321 321 319 318 318 318 318 319 320 320 320 321 321 321 321 320 320 321 321 321 321 321 321 321 322 322 322 322 322 322 322 322 322 322 322 322 321 321 321 321 321 321 321 321 321 322 322 322 322
312 311 311 312 314 315 315 314 314 315 315 315 315 316 316 317 317 318 319 319 318 317 318 319 319 319 319 318 318 319 320 320 320 320 320 321 321 321 320 320 319 318 318 318 319 320 320 320 320 320 319 319 320 321 320 320 321 321 321 321 321 321 322 322 321 321 322 322 321 321 321 321 321 321 320 320 320 320 319 319 320 320 320 320 320 320 320
310 311 311 312 314 315 314 314 315 315 315 316 316 316 316 316 317 318 319 320 319 318 319 319 319 318 317 317 318 319 319 320 320 320 319 320 320 320 320 320 319 319 319 319 319 319 319 319 318 318 318 319 320 321 320 320 320 320 320 320 320 320 320 320 320 320 320 320 320 320 320 319 319 319 319 319 318 318 318 318 319 318 319 319 319 319 319
310 311 312 312 313 314 314 314 314 314 314 316 317 316 316 317 317 318 318 319 318 317 318 319 318 317 317 318 319 320 319 320 320 319 318 318 318 318 318 319 319 319 319 319 319 318 318 318 317 317 317 318 319 319 319 320 320 319 319 319 319 319 319 319 319 319 319 319 318 319 318 318 318 318 318 318 318 317 317 317 317 318 318 318 318 318 318
311 311 312 313 313 314 314 314 314 314 315 316 316 316 317 318 318 317 317 317 317 317 318 318 318 318 318 319 320 320 319 319 319 318 318 318 318 318 318 319 319 319 319 319 319 319 318 318 317 318 318 318 319 319 318 318 319 319 318 318 318 318 318 318 318 318 318 317 317 317 317 317 317 317 317 317 316 316 316 316 316 316 317 316 316 317 318
Wind_Speed
28 27 27 27 26 26 26 24 24 23 23 23 22 21 17 12 17 26 20 14 20 15 6 7 7 7 11 15 17 18 15 13 14 17 16 13 12 12 11 11 12 11 11 14 15 13 12 13 13 12 10 10 10 13 19 21 19 15 11 11 14 10 6 6 6 6 9 10 9 16 20 17 13 11 11 11 10 9 7 5 4 5 6 6 6 7 7
28 28 27 27 26 26 25 24 22 21 20 20 20 18 15 16 24 28 17 13 17 11 5 5 6 7 12 15 16 19 17 14 14 14 11 9 9 9 9 10 12 12 12 11 13 13 12 13 14 12 10 9 12 15 20 22 16 12 10 9 11 11 7 6 6 4 7 9 7 10 17 15 9 9 11 14 15 13 10 7 4 5 9 8 6 6 7
28 28 27 27 26 26 25 23 22 20 18 17 17 16 16 16 18 21 20 20 18 12 8 9 8 9 14 14 13 13 12 13 15 14 13 12 11 9 10 14 14 13 14 13 12 13 11 11 13 12 11 12 13 17 15 15 14 12 17 17 14 11 9 8 8 8 9 11 7 5 9 11 8 9 12 16 18 17 12 7 5 6 9 9 7 6 6
27 27 27 26 26 25 24 22 21 20 18 16 15 14 14 12 9 10 16 21 17 12 13 13 9 7 8 8 9 10 9 13 18 18 14 13 14 12 11 14 14 13 16 16 13 14 16 14 10 10 13 11 9 23 28 17 15 18 19 22 13 6 8 11 14 12 9 9 8 4 4 9 13 14 15 15 16 18 13 7 8 7 4 6 8 7 7
28 27 27 27 26 25 23 22 20 19 18 15 14 14 12 8 5 6 9 12 12 13 15 13 8 8 9 5 6 12 11 11 15 16 12 11 14 12 9 11 12 13 16 15 13 16 17 16 14 14 16 14 15 26 26 14 21 33 19 19 11 4 8 14 18 18 13 8 8 8 8 9 14 17 18 17 15 16 15 12 12 7 4 6 9 7 8
28 28 27 26 26 24 23 22 20 19 17 15 13 12 10 7 9 12 12 9 8 9 13 15 13 14 14 8 7 13 13 10 11 12 11 12 12 8 7 10 10 12 14 11 11 15 14 12 15 16 16 16 18 24 20 13 22 31 17 12 7 4 7 13 17 19 18 15 12 13 13 12 13 16 18 19 19 17 15 15 14 9 7 9 8 6 7
28 29 28 27 25 24 23 22 20 19 18 16 13 11 10 10 12 16 14 11 11 13 16 18 16 14 13 8 7 11 12 12 11 9 9 11 9 5 8 12 12 12 11 8 8 11 11 11 13 15 17 17 15 16 14 13 20 23 15 12 7 2 5 10 15 16 18 20 18 16 15 14 13 15 17 17 19 21 20 16 12 11 10 11 9 9 8
29 29 28 26 25 24 22 20 19 18 17 17 15 14 14 13 12 12 11 12 15 17 16 15 11 11 11 8 8 10 11 13 12 9 10 11 8 6 9 14 14 11 9 8 7 10 11 13 15 16 17 15 11 9 9 12 20 21 14 11 13 9 5 8 9 9 14 19 20 19 18 17 14 12 16 18 18 20 20 17 12 9 8 9 9 9 9
29 29 28 26 25 23 21 20 18 17 16 16 16 17 17 17 16 13 10 8 11 12 12 10 7 6 8 7 7 9 11 14 13 11 12 13 12 11 11 11 10 8 9 8 9 12 13 14 18 20 17 16 15 12 9 12 18 18 13 10 14 13 5 6 5 2 6 13 19 21 20 18 17 16 15 18 16 14 13 14 14 12 10 8 8 8 8
29 28 27 26 24 22 21 19 17 16 16 16 17 18 18 18 17 15 9 6 7 8 8 9 8 7 6 8 10 11 12 14 14 10 10 13 15 15 12 8 6 6 8 10 11 16 19 18 23 28 26 24 25 24 20 19 16 13 12 11 10 10 9 4 5 4 4 7 15 22 19 15 16 17 13 10 10 10 11 11 13 16 13 7 5 6 6
28 27 26 25 23 21 20 18 17 16 16 17 18 19 20 18 18 16 10 5 7 8 7 6 7 7 9 12 14 14 14 15 14 10 7 10 15 17 15 11 7 6 9 14 17 20 23 24 26 29 31 29 28 28 26 23 20 16 13 11 10 12 12 6 4 5 5 7 9 12 14 13 12 11 9 9 9 10 10 9 9 11 11 9 8 8 6
26 26 25 24 22 20 19 18 16 15 16 16 18 20 20 18 17 15 8 4 7 8 6 7 10 11 14 16 15 14 15 16 17 16 13 13 17 20 18 12 8 9 12 17 21 20 19 23 23 23 26 25 22 23 22 20 20 19 14 12 12 12 11 6 4 4 4 4 4 5 9 9 6 6 8 12 13 11 9 8 7 4 2 5 10 10 6
25 24 23 22 21 20 18 16 15 15 15 15 17 19 18 16 16 14 10 5 6 7 7 10 15 17 18 18 15 15 17 18 20 20 16 15 17 19 19 13 11 14 16 19 21 15 10 13 13 12 15 14 14 16 17 17 18 17 16 15 12 8 8 7 3 4 4 4 4 5 5 2 3 3 7 7 7 7 5 5 5 3 7 5 1 1 2
23 23 22 21 20 18 15 14 14 14 14 14 15 17 17 16 15 15 12 6 5 9 11 10 12 15 16 15 14 13 14 16 16 15 14 15 15 16 19 17 14 17 20 17 12 4 3 5 7 7 7 8 9 10 9 10 13 14 16 15 10 6 6 6 3 2 5 5 4 3 3 3 4 4 3 3 3 2 3 2 2 4 7 8 6 7 8
21 21 21 20 18 16 14 13 13 13 13 13 14 15 17 17 16 15 15 10 6 9 12 9 8 11 12 13 14 11 9 9 9 10 13 15 14 15 20 19 15 17 20 13 3 3 1 3 4 4 3 3 6 6 5 6 7 9 13 12 8 6 4 4 4 2 1 3 3 3 4 5 5 3 1 3 7 9 7 5 3 5 6 8 10 9 10
18 19 20 18 17 15 13 13 13 13 13 13 13 15 16 15 14 15 16 13 7 5 8 10 13 16 14 14 16 13 7 5 6 7 9 10 12 15 18 17 15 13 13 9 1 2 2 4 3 4 4 3 4 5 5 5 6 7 10 11 8 6 4 4 4 3 2 4 2 5 4 3 3 3 2 0 6 10 7 3 3 5 6 10 12 11 9
17 18 17 16 15 14 14 13 13 12 13 12 12 14 14 12 13 14 15 14 10 11 18 21 20 18 13 9 12 10 6 5 7 4 3 8 13 15 15 16 15 12 8 4 1 2 3 4 4 5 5 3 3 5 5 4 5 6 10 14 11 6 3 4 4 4 2 5 1 3 1 1 2 0 1 2 7 11 5 2 1 4 6 13 14 11 9
17 17 16 15 15 15 14 14 13 13 13 11 11 14 14 13 13 13 14 15 10 12 22 23 17 16 13 9 12 12 8 8 8 3 4 8 8 9 13 15 12 9 7 4 1 3 3 4 4 4 5 4 3 4 5 3 3 4 7 9 9 7 5 3 3 5 4 4 1 2 1 1 3 6 8 6 8 10 3 4 1 3 8 15 16 12 12
17 16 16 15 15 15 14 14 13 12 11 10 11 15 14 14 14 13 15 17 13 14 22 21 16 18 19 16 18 18 14 12 9 5 5 5 4 12 18 12 6 6 6 2 1 3 3 3 4 4 4 5 4 3 4 3 2 4 6 6 5 6 6 4 3 3 4 4 2 1 2 5 4 10 14 12 7 4 2 3 8 10 12 16 18 16 14
17 16 16 15 15 15 13 12 11 11 10 10 11 15 15 14 14 15 16 17 17 21 27 24 18 21 21 18 19 18 15 14 12 6 3 4 9 16 14 5 3 6 4 1 1 3 3 4 4 3 4 5 2 1 4 4 3 2 3 3 3 3 3 3 3 3 3 3 3 2 2 5 4 6 8 8 2 3 3 8 12 14 16 17 18 17 15
18 17 16 16 15 14 12 12 11 10 11 10 11 15 18 15 13 14 16 17 17 19 21 19 16 19 21 20 21 21 18 17 16 12 9 10 11 8 4 4 3 2 2 2 2 2 2 2 3 3 4 3 1 1 3 3 2 1 1 1 1 3 3 2 3 3 3 2 2 1 5 9 5 5 2 1 5 9 13 13 10 12 16 17 18 18 16
17 17 16 15 14 14 13 12 12 11 11 11 12 15 18 16 13 14 15 15 18 21 24 25 26 27 27 27 27 28 27 26 25 22 17 16 14 10 10 11 5 4 2 3 2 2 3 2 3 3 2 2 2 2 2 2 0 2 3 2 1 3 2 1 2 2 1 3 5 6 14 22 13 11 15 12 14 19 21 20 15 14 15 18 19 19 18
17 17 16 15 14 14 13 13 13 12 12 12 12 14 17 16 14 14 16 17 20 24 28 29 28 27 27 25 22 21 22 23 25 25 22 19 15 14 16 15 7 5 4 4 2 3 4 3 4 3 2 2 2 1 1 1 1 2 3 2 2 4 2 2 2 3 3 4 4 7 16 29 23 6 22 22 20 22 24 24 22 20 19 21 22 22 23
18 17 17 16 15 15 14 14 13 13 13 12 12 13 15 15 13 14 16 16 16 18 19 19 19 19 19 20 19 17 18 20 22 23 24 22 17 12 13 15 8 6 6 7 7 6 6 5 4 3 2 2 2 1 1 0 1 2 2 1 1 5 5 2 1 3 4 2 5 7 10 25 30 7 21 26 24 26 27 26 25 23 23 25 25 25 26
18 18 17 16 15 15 15 14 14 14 13 12 12 12 14 15 13 13 14 13 13 12 9 12 20 22 19 20 21 19 18 17 18 19 21 23 24 20 17 15 10 5 6 9 10 10 7 4 4 4 3 2 1 1 2 1 2 2 2 1 1 3 8 6 2 2 3 3 5 7 9 22 32 16 15 26 26 28 29 27 26 25 25 26 26 26 26
19 18 17 17 16 15 15 14 14 14 13 13 12 13 14 14 12 13 14 14 15 13 8 10 20 22 16 18 22 21 19 19 20 20 21 22 25 26 23 20 15 11 10 11 12 12 8 2 3 4 3 2 1 1 1 1 0 0 0 1 3 3 4 4 2 3 5 4 4 8 10 15 25 23 14 23 28 29 29 27 26 26 26 26 26 26 26
20 19 18 17 16 16 15 15 15 14 14 14 14 14 15 15 13 13 15 13 11 9 6 8 17 23 23 26 27 21 18 20 21 22 23 23 23 24 23 22 19 17 15 13 12 11 6 2 3 4 4 5 5 2 2 2 0 1 2 2 2 2 1 1 2 2 2 1 4 8 6 4 13 20 18 19 25 29 29 28 27 26 25 25 26 26 26
22 21 19 18 17 16 16 16 15 15 16 16 16 16 16 16 13 13 15 15 12 12 11 14 22 27 27 26 23 17 15 17 18 20 22 21 20 22 23 21 19 17 15 13 10 6 3 2 3 3 3 5 5 2 1 0 1 1 3 3 5 4 2 1 0 2 4 7 10 10 6 3 8 14 15 16 20 27 30 28 28 27 25 25 26 26 25
25 24 21 18 17 16 15 15 15 15 16 16 16 16 15 14 11 9 11 13 14 16 18 19 21 19 18 20 22 22 20 18 16 17 19 19 18 20 21 20 19 16 15 14 10 5 2 4 5 5 5 4 3 2 2 0 1 2 2 5 8 6 3 3 2 3 8 12 14 12 6 2 4 9 12 13 17 24 27 26 26 26 25 25 26 26 25
26 25 22 18 16 14 14 14 14 14 15 15 14 13 13 10 5 2 3 5 7 11 14 12 11 13 19 25 27 24 19 16 14 14 15 16 18 18 18 19 19 18 16 15 11 5 2 3 5 8 9 6 2 2 2 1 2 2 1 2 4 4 4 5 6 7 12 18 18 12 7 7 8 10 10 10 15 21 24 24 24 24 24 24 25 24 24
24 23 21 18 16 15 15 15 14 14 15 13 10 8 7 5 3 4 6 8 11 15 15 11 11 17 21 21 18 13 13 14 14 13 13 15 18 19 18 17 17 17 17 14 8 4 2 2 3 6 7 5 3 2 2 1 3 2 0 1 3 3 4 7 8 11 15 17 12 7 11 12 11 11 8 8 13 19 22 22 23 23 23 23 23 23 22
22 20 19 17 17 17 17 17 16 16 15 13 11 10 10 9 10 12 12 11 14 17 15 10 9 9 9 11 13 13 15 16 15 13 12 13 15 17 17 17 15 15 15 10 4 2 3 4 5 6 5 3 3 2 2 2 3 3 2 2 4 4 4 6 7 9 9 7 10 13 12 10 10 11 8 7 12 18 20 20 21 21 21 21 21 21 21
20 18 17 17 17 17 17 17 17 17 16 15 14 13 12 11 11 9 8 8 12 14 11 7 5 3 5 11 17 17 16 15 10 8 8 9 12 14 14 15 16 13 11 7 4 3 3 4 4 4 4 4 4 2 2 4 4 4 3 3 3 3 2 3 3 6 7 8 9 10 11 13 14 13 11 11 15 17 18 20 22 22 21 21 21 20 19
18 16 15 15 16 17 17 16 16 15 15 16 14 11 9 10 9 9 9 8 9 10 9 7 4 3 7 11 11 9 11 11 7 5 4 5 8 9 7 7 9 7 5 4 3 2 2 2 2 2 2 3 3 2 3 3 3 2 2 2 3 2 2 3 2 8 12 14 14 13 14 14 13 11 12 15 16 16 17 20 22 23 24 24 22 20 19
15 14 14 15 17 17 15 14 14 14 13 14 13 10 9 10 11 12 13 11 8 7 6 6 5 4 5 6 5 6 10 11 8 5 4 2 3 5 4 2 1 1 3 4 3 1 1 2 2 1 1 1 2 3 3 2 2 2 1 3 3 3 4 4 3 13 18 20 19 16 13 12 11 11 13 15 15 16 18 19 21 23 25 25 23 20 20
13 14 15 16 16 15 13 12 12 12 12 12 13 13 14 14 15 16 16 13 11 8 6 4 4 4 3 3 3 6 10 10 7 5 4 3 4 3 2 3 2 1 1 1 1 1 2 2 1 1 1 1 2 3 3 1 2 3 3 5 6 5 6 6 6 17 19 16 16 16 13 12 12 12 12 14 16 17 19 19 20 21 23 23 23 21 20
14 15 16 16 15 14 13 12 11 13 15 15 15 17 18 17 15 13 12 12 13 13 10 6 5 6 6 4 4 4 6 6 5 3 1 0 1 0 1 2 1 2 1 0 1 2 2 2 1 1 2 3 3 4 2 2 4 5 7 8 8 7 7 7 11 22 24 18 15 14 12 12 13 12 11 12 13 14 17 18 18 19 20 21 22 22 21
16 16 17 17 15 10 8 10 13 16 18 17 14 14 14 11 8 6 7 8 8 11 12 8 6 9 8 6 7 8 5 3 4 3 2 4 3 2 2 2 2 2 1 1 1 2 2 2 1 1 2 4 4 2 2 5 7 7 8 7 7 8 8 8 12 19 20 17 14 14 12 11 11 11 11 12 11 12 13 14 15 16 18 18 19 20 20
17 17 15 15 13 10 10 14 18 20 19 14 9 7 6 5 4 3 4 5 5 6 8 8 8 11 9 6 8 13 11 5 2 2 2 4 3 1 1 1 1 1 1 1 2 4 3 1 1 1 2 3 2 1 4 7 8 6 6 7 9 10 12 13 13 14 15 14 15 15 13 10 8 8 10 12 12 12 12 12 13 15 16 17 17 18 18
18 16 13 13 14 13 14 16 17 16 13 8 5 5 4 3 3 3 2 3 3 4 6 6 7 11 13 10 8 9 8 6 4 1 1 2 2 2 1 1 2 2 1 1 3 4 2 1 2 2 1 3 2 6 8 10 10 9 9 10 12 12 13 13 13 12 12 13 14 14 12 11 11 11 10 12 14 14 14 13 13 14 14 15 16 16 15
20 18 15 16 18 18 16 14 11 10 8 5 3 4 2 2 3 3 3 2 2 2 4 5 4 5 9 11 9 7 7 7 7 3 0 2 5 4 1 1 3 3 1 1 3 3 1 1 3 2 3 4 4 10 13 13 13 12 12 12 12 11 10 10 10 10 10 11 12 13 13 14 14 14 13 13 14 14 14 14 13 12 12 13 13 14 14
19 19 20 21 21 18 15 11 7 5 5 4 2 2 2 2 2 2 2 2 3 2 3 5 5 5 6 8 8 7 5 6 6 4 2 3 6 5 2 1 2 1 1 2 4 2 0 2 3 1 2 3 6 11 12 11 10 10 10 10 10 8 8 9 10 10 10 11 12 13 14 15 16 15 15 15 15 16 17 16 15 14 14 14 14 14 14
17 17 19 19 16 14 10 7 6 4 2 2 2 3 2 2 2 2 2 2 4 4 4 6 8 9 8 7 5 4 4 3 3 4 2 2 3 4 2 1 2 1 0 1 1 2 3 3 3 3 5 7 9 11 11 10 10 9 9 9 9 8 8 10 11 11 12 14 15 16 16 17 17 18 18 18 18 20 21 20 19 17 16 15 14 14 14
20 18 15 10 8 9 7 4 4 5 3 1 2 3 4 5 6 4 3 3 4 5 7 10 10 8 6 4 3 2 2 2 3 2 2 1 1 1 0 2 1 0 0 1 2 3 3 3 4 7 10 10 9 9 10 9 9 10 10 9 9 9 9 10 11 12 14 16 18 19 19 19 20 20 21 20 21 21 21 20 18 17 16 16 15 14 14
18 16 12 6 4 7 7 3 3 5 3 2 3 3 4 6 7 6 7 10 9 10 13 14 12 8 7 6 4 2 1 2 2 1 1 1 1 2 2 1 0 1 2 3 2 3 3 3 5 8 11 10 9 10 11 10 9 9 10 10 9 9 10 12 13 13 14 17 18 18 18 18 19 20 21 20 20 20 20 19 18 17 18 18 18 17 16
13 12 9 4 3 4 3 1 2 3 1 3 5 6 6 8 9 11 14 17 16 15 17 17 13 8 6 5 3 3 3 3 2 1 2 1 2 2 2 0 1 2 3 4 3 4 3 2 4 9 12 11 10 9 8 7 8 9 11 12 12 10 11 13 14 14 15 16 17 18 18 19 19 20 20 20 19 19 19 18 18 18 18 18 18 17 16
12 11 8 3 2 3 2 1 3 5 7 10 14 16 16 15 15 15 16 16 15 16 19 18 13 8 5 3 2 2 2 2 1 2 2 1 1 1 1 1 3 3 3 4 5 4 2 4 10 15 16 14 13 11 9 9 11 13 14 16 16 14 12 14 16 17 17 18 19 20 20 20 20 20 20 20 20 20 19 18 18 17 17 17 17 18 17
11 10 5 1 1 1 1 2 6 10 14 16 17 20 20 17 15 17 18 16 14 13 14 14 10 6 4 3 2 1 1 2 2 2 0 0 1 2 2 3 4 3 3 4 4 3 3 9 17 21 20 17 15 14 12 10 9 11 13 16 18 18 17 18 19 18 18 19 20 21 21 20 18 18 18 19 20 19 19 19 19 18 17 17 17 17 17
11 9 5 3 1 2 4 5 5 6 11 16 19 23 24 22 20 22 24 22 17 13 11 10 8 5 4 4 4 3 3 4 3 2 2 2 3 3 2 4 5 4 3 3 4 7 11 18 23 25 23 20 18 17 15 13 10 10 13 14 14 15 17 18 18 17 17 18 19 19 19 18 17 16 17 19 19 18 17 18 18 17 17 16 17 17 17
7 6 5 6 4 5 10 11 6 4 10 18 21 23 22 22 23 25 26 24 21 16 12 8 6 4 3 4 3 3 3 4 3 3 4 5 4 3 3 5 5 4 4 6 9 13 19 23 25 25 23 21 20 22 22 20 18 19 20 18 16 16 16 17 17 18 18 18 17 17 16 16 16 16 17 17 17 16 15 15 15 15 15 14 15 16 17
6 5 7 12 12 10 11 12 10 8 9 14 19 22 20 18 20 23 26 25 22 17 11 7 5 3 2 3 4 3 3 4 3 4 5 5 3 3 4 5 6 6 7 11 14 17 20 22 23 22 22 23 23 23 23 23 23 23 23 22 21 20 19 18 17 17 17 17 17 17 16 15 15 15 15 15 15 17 19 18 16 15 15 14 14 15 16
7 7 9 15 19 18 15 14 14 13 13 16 22 27 25 21 20 22 24 24 22 17 12 9 7 4 3 4 4 3 2 3 4 5 5 4 3 3 4 5 7 9 12 15 17 18 20 21 20 20 21 23 23 22 22 23 25 24 24 24 25 24 22 21 21 20 19 19 18 18 17 18 18 18 18 17 17 19 21 22 20 18 18 18 18 19 18
Wind_Direction
323 322 323 323 324 325 325 325 324 326 331 331 335 337 325 305 291 287 285 307 320 315 286 267 257 249 262 261 263 267 269 272 271 268 271 277 281 282 281 279 282 287 289 290 288 281 277 276 278 283 268 235 221 211 201 196 196 202 211 199 187 192 208 211 227 256 270 268 228 185 180 187 202 206 202 208 219 220 220 221 190 194 217 198 192 237 238
322 321 321 320 320 322 322 323 323 323 328 329 328 326 314 302 296 293 298 327 314 287 250 275 264 262 272 268 267 269 268 276 280 276 288 306 304 299 306 308 307 319 329 319 304 299 290 275 274 285 293 292 285 257 223 211 205 195 199 195 177 184 201 193 196 225 246 260 258 200 185 186 200 203 195 203 212 217 228 233 204 204 218 199 182 231 240
321 319 319 318 317 317 317 319 320 320 323 324 319 314 309 307 296 287 300 316 304 269 249 262 260 270 276 272 278 281 279 295 311 320 323 319 315 318 320 321 327 339 348 346 330 329 332 306 287 288 293 293 304 314 295 257 241 218 202 188 174 188 194 180 195 204 207 222 231 205 186 184 194 204 201 200 202 208 222 223 207 219 223 211 201 223 255
320 319 318 316 314 314 313 314 315 317 320 318 313 308 303 305 300 290 306 316 311 295 284 278 270 280 291 293 306 316 311 310 319 325 320 310 317 328 322 321 336 352 354 349 334 338 348 334 321 328 322 308 313 337 339 320 300 294 242 202 179 195 195 187 205 208 204 219 226 217 190 185 191 199 206 207 202 203 208 215 221 214 191 223 227 215 240
320 319 317 315 312 311 310 309 308 310 313 312 307 301 293 289 286 290 310 318 316 316 315 312 315 320 323 322 308 310 309 308 315 315 308 312 324 330 319 323 349 2 357 348 330 334 342 334 339 349 337 328 322 330 338 335 335 335 297 219 193 206 205 193 202 211 211 218 230 234 234 215 196 192 200 212 214 208 204 213 226 211 164 242 246 204 218
320 319 318 315 312 310 308 306 303 302 303 302 301 296 283 274 279 288 300 306 300 307 316 318 321 316 310 299 288 297 298 298 307 308 308 315 322 325 302 310 345 359 352 346 329 333 341 332 339 348 338 333 332 331 336 344 350 351 328 247 210 181 209 198 196 208 216 219 229 233 237 240 218 196 193 203 212 220 221 219 220 205 201 241 240 187 204
320 319 318 315 312 310 308 304 300 296 295 293 290 282 273 275 282 287 294 296 291 296 302 304 306 306 304 297 285 287 289 288 291 294 299 299 304 318 296 298 325 343 343 346 328 325 334 330 336 342 332 331 335 326 326 345 355 354 336 304 294 221 200 199 197 203 209 216 228 233 238 247 234 206 195 198 206 215 224 231 225 207 212 234 229 206 215
319 318 317 314 311 308 306 303 297 292 291 288 281 272 268 269 275 290 305 303 292 293 297 299 302 304 306 301 287 285 285 284 283 281 283 288 294 304 294 297 315 334 336 332 310 304 319 322 320 325 326 327 330 321 322 337 336 332 328 321 311 290 224 184 195 205 203 208 219 230 238 245 248 225 201 201 208 211 216 226 232 228 224 225 224 223 231
318 317 315 312 310 307 303 300 295 289 286 282 276 272 269 267 271 286 304 301 290 295 300 300 301 300 299 299 303 305 298 297 302 297 290 294 296 295 298 302 311 322 320 311 297 297 307 311 307 308 309 306 302 299 306 315 315 315 315 311 311 305 266 174 149 177 209 204 208 219 232 241 251 249 222 206 209 212 211 210 212 223 231 223 220 225 236
316 316 314 312 309 305 301 297 293 287 280 275 273 273 277 281 285 293 297 283 283 293 292 288 287 283 288 299 304 305 301 302 306 299 289 291 293 300 312 309 296 299 295 285 282 289 294 297 299 297 291 286 285 284 287 291 288 289 298 296 296 303 288 228 149 152 222 225 212 209 214 229 242 245 239 222 211 213 219 211 200 206 215 217 218 219 218
317 316 315 313 309 305 301 296 291 283 274 271 270 272 277 284 291 299 301 281 279 289 288 282 280 280 294 302 302 300 300 300 299 300 302 296 294 299 301 294 288 285 274 274 278 281 287 291 293 293 290 286 284 282 284 285 277 269 278 286 283 289 290 262 170 161 200 227 233 211 201 216 231 230 238 249 240 230 230 228 211 206 210 210 206 214 217
316 315 314 312 310 305 300 294 290 282 274 271 270 270 274 277 285 291 287 275 290 293 285 277 281 289 295 293 292 298 307 311 309 305 302 297 292 287 281 275 271 265 268 279 283 282 290 298 297 293 290 288 286 284 284 283 279 273 270 272 275 285 295 277 198 159 165 188 231 230 213 221 224 197 210 235 244 246 246 248 253 254 253 232 219 218 218
315 315 314 312 310 307 299 292 288 283 278 271 267 269 272 275 279 279 270 271 285 279 278 286 288 292 293 290 293 301 306 311 310 305 305 307 301 289 283 279 272 272 275 274 273 277 298 307 302 294 289 290 288 285 284 279 276 277 277 277 277 287 301 295 230 159 154 164 192 221 230 302 341 217 203 216 245 261 259 264 286 8 60 60 333 290 73
315 315 315 315 313 308 299 292 289 285 282 276 270 272 274 273 272 270 268 266 266 276 288 297 292 291 294 298 304 307 308 311 311 310 310 308 302 295 293 295 295 299 300 284 262 269 343 312 304 306 306 307 296 288 292 285 273 272 275 277 282 288 292 303 308 182 174 179 192 240 275 305 305 275 225 144 124 129 139 152 322 13 71 87 71 40 41
316 316 316 317 315 308 301 296 294 290 286 281 274 272 272 271 269 267 265 261 268 286 279 264 274 298 309 310 306 302 307 311 312 314 310 303 301 302 301 304 307 309 309 302 266 114 16 281 287 302 304 303 293 293 317 314 288 271 270 269 271 280 290 313 318 321 109 148 176 222 249 237 229 240 336 75 101 108 114 108 43 4 30 77 88 66 43
319 318 318 319 315 308 302 298 297 295 289 282 276 272 272 275 276 274 267 260 258 274 261 260 286 303 307 302 295 296 310 321 315 318 313 307 310 311 308 311 318 322 319 314 314 125 233 246 243 264 265 280 302 300 306 318 315 304 302 305 300 291 309 333 313 297 49 86 165 216 217 219 213 187 212 295 96 98 92 61 14 335 1 56 77 77 56
325 322 322 324 318 311 307 303 303 299 291 284 279 277 279 282 278 273 267 261 253 258 267 275 286 291 294 296 293 298 314 302 293 296 298 305 313 317 320 320 320 328 342 335 255 180 212 235 239 249 250 248 291 295 296 318 322 321 334 337 333 329 344 356 337 319 41 86 93 258 192 193 280 177 185 201 107 96 99 194 271 327 17 57 70 77 70
330 327 327 327 322 317 314 309 306 301 293 286 279 277 280 283 280 279 277 270 260 262 271 275 277 275 278 289 293 295 297 289 287 285 284 295 301 308 318 324 325 331 352 5 265 221 216 233 248 256 252 233 232 270 286 301 303 327 358 353 341 346 359 14 358 329 1 71 67 314 45 283 311 19 14 9 77 91 131 205 185 28 48 60 65 71 72
335 331 328 327 324 320 317 312 309 304 296 289 281 278 281 285 287 291 283 267 251 259 273 278 280 277 279 285 287 285 283 279 278 283 287 292 312 308 306 314 342 344 345 21 200 237 226 225 249 267 262 239 221 255 277 278 301 353 15 7 346 352 358 1 356 322 341 30 38 7 328 307 352 43 28 19 50 113 155 65 55 63 71 64 61 64 65
335 332 328 327 324 322 319 315 312 308 298 291 286 283 284 288 288 289 284 268 255 266 278 281 279 275 274 278 280 282 284 277 269 267 260 266 309 318 311 304 20 358 335 313 250 258 232 222 239 253 250 242 231 268 281 274 273 310 5 25 2 353 343 336 346 342 340 353 20 73 313 309 4 51 25 18 53 180 126 73 56 62 73 70 63 60 57
333 331 328 327 326 324 322 316 313 311 300 294 292 288 288 292 291 288 287 275 261 268 281 287 284 275 270 268 271 273 276 274 271 275 275 271 284 303 301 290 324 19 17 344 328 288 269 258 254 250 253 258 219 186 287 292 258 231 89 78 13 2 6 348 352 19 24 331 328 357 304 313 359 80 73 60 111 107 98 93 71 57 68 72 65 61 62
334 332 330 330 328 325 323 317 312 310 303 297 294 289 288 293 294 290 289 281 268 268 276 282 285 281 275 271 270 268 267 265 267 269 271 273 270 255 257 277 272 173 192 319 317 289 310 313 284 278 278 275 249 225 272 295 277 76 60 67 68 51 51 252 274 346 334 266 283 317 322 324 345 88 102 92 94 94 91 92 83 64 69 76 70 66 70
336 335 333 331 329 325 323 318 312 308 305 301 295 287 287 293 294 291 292 291 285 282 285 287 287 285 282 282 283 281 274 265 262 260 257 259 265 262 262 267 250 181 208 238 229 283 303 283 277 289 279 260 260 245 244 259 307 23 44 65 87 68 66 222 246 328 304 272 317 356 344 330 328 82 110 98 94 96 89 87 86 77 74 77 74 72 72
335 335 333 331 329 325 321 318 314 308 305 302 297 292 290 292 295 297 297 293 291 295 297 292 281 272 277 288 292 288 279 268 261 258 251 246 250 260 264 261 241 179 196 229 243 260 270 272 275 274 270 292 307 293 274 15 41 20 23 33 75 53 29 342 299 340 321 326 3 10 349 326 319 332 108 97 92 96 92 89 90 86 78 76 74 74 74
336 335 332 330 329 326 322 320 315 311 308 305 302 297 292 291 293 296 294 290 290 296 303 292 283 280 285 292 289 280 277 276 271 263 254 245 242 243 250 256 247 208 225 248 246 240 243 270 283 272 286 308 322 316 316 23 65 40 29 11 298 21 13 353 332 345 314 291 330 343 342 329 322 329 100 102 95 94 93 91 92 88 82 79 77 75 75
335 333 332 329 326 324 322 321 317 314 312 309 304 298 292 292 293 289 285 286 286 281 268 273 288 296 303 298 289 280 276 278 274 267 260 251 243 241 245 251 252 253 258 252 237 234 236 250 278 278 291 300 302 341 271 225 169 308 170 225 261 297 345 337 304 319 310 285 321 347 357 344 333 341 45 92 98 96 94 91 89 86 84 82 79 76 75
335 332 330 326 324 321 318 318 317 315 314 311 307 302 294 291 291 287 283 282 279 274 259 267 288 299 302 297 294 292 285 278 271 264 260 254 243 236 237 241 244 248 255 253 247 247 248 248 270 271 284 304 308 286 216 220 255 262 243 231 242 253 283 325 307 308 299 328 3 355 1 348 330 342 17 68 91 96 95 91 87 86 85 84 82 78 77
335 331 326 323 321 319 317 316 315 314 315 313 309 306 301 296 295 291 283 276 269 267 273 282 288 294 298 300 303 307 298 286 275 264 258 254 243 232 229 233 237 239 243 247 248 249 238 239 268 272 283 305 307 274 218 217 137 222 243 209 198 202 178 148 325 296 276 292 316 325 330 335 335 349 16 53 79 90 92 90 89 88 87 85 84 81 77
333 330 326 322 322 321 319 318 317 316 316 315 312 313 312 308 304 295 284 279 271 267 274 285 289 290 294 300 303 303 296 285 274 263 256 251 246 235 227 225 227 230 236 241 242 242 241 242 252 256 251 264 292 291 280 272 211 238 227 196 203 215 219 220 251 283 270 277 295 299 275 233 29 29 39 55 76 87 89 89 89 88 85 84 84 81 78
329 329 327 322 322 325 323 322 324 322 317 316 318 319 317 313 308 302 308 312 299 285 284 289 293 292 294 296 298 302 301 290 276 267 257 251 250 245 234 224 221 221 229 239 240 240 274 277 271 266 252 234 238 299 287 253 256 258 202 186 218 244 276 277 273 266 266 276 289 286 231 164 113 82 69 68 79 88 90 89 89 87 84 83 81 78 77
326 326 323 319 320 325 325 324 325 322 316 315 313 302 294 296 299 304 318 331 324 308 296 286 286 292 296 297 296 301 309 305 292 280 268 260 257 253 241 229 223 219 223 233 235 221 227 247 269 277 264 229 211 277 291 279 284 278 234 324 303 307 316 300 276 264 270 275 265 205 161 143 119 103 91 75 82 90 92 93 94 93 90 86 81 78 77
327 322 317 316 319 322 326 328 326 320 314 309 293 271 269 285 297 298 297 295 295 295 290 285 289 292 296 307 309 309 314 316 303 280 262 253 255 254 241 227 226 228 223 218 205 182 226 237 242 263 269 217 200 269 283 237 266 293 298 292 297 299 309 305 277 256 250 226 178 154 141 135 130 127 124 104 94 95 95 97 100 100 96 92 89 85 81
328 320 315 316 320 323 325 326 322 316 311 305 294 283 284 294 298 297 290 278 277 278 275 276 292 283 275 297 306 311 319 324 315 285 258 235 239 252 242 221 222 229 223 205 179 177 219 243 251 257 241 195 196 277 281 237 257 292 290 282 300 301 307 325 273 222 200 173 157 144 132 133 137 139 135 119 104 100 99 100 100 99 95 92 90 87 84
329 323 319 320 324 327 327 323 317 311 305 302 301 302 305 303 295 291 292 286 274 269 263 255 256 276 287 290 297 318 330 329 325 318 298 240 239 263 262 222 213 215 201 191 189 187 210 244 271 260 225 192 200 255 267 258 268 270 257 300 327 333 336 356 104 137 127 116 113 116 120 126 130 127 120 112 105 101 100 97 95 95 93 88 87 85 81
329 327 326 326 328 330 330 326 318 310 306 308 312 315 311 298 288 290 293 286 265 254 255 244 233 262 298 292 289 328 335 328 316 306 305 320 324 324 344 31 41 215 181 180 185 188 227 245 247 255 234 177 197 230 256 279 267 220 194 2 8 18 344 329 133 126 113 106 110 114 117 120 118 107 102 103 102 102 101 97 94 94 92 88 87 86 81
337 335 333 333 333 331 332 331 320 309 311 317 316 311 304 295 291 291 287 273 254 246 258 268 254 259 292 297 284 314 329 329 318 295 284 329 358 0 50 67 41 318 235 146 166 200 209 204 213 281 277 219 235 265 268 236 193 167 114 80 79 66 8 351 114 124 118 112 114 121 127 127 120 107 97 95 95 96 97 95 93 94 94 92 90 86 81
349 343 340 341 340 331 325 327 323 316 321 324 315 305 301 297 293 287 272 256 247 241 241 254 265 255 259 266 268 296 324 321 307 302 271 170 335 318 132 103 112 227 227 228 218 201 165 156 166 293 273 251 263 274 248 170 133 122 117 107 91 67 29 29 94 114 118 116 112 116 123 122 118 114 108 99 92 90 90 88 87 91 96 97 95 91 87
351 345 343 343 341 327 312 319 318 313 317 321 313 300 295 291 285 268 243 238 244 236 227 231 255 257 253 251 255 264 278 290 292 291 178 179 205 210 177 163 169 193 233 280 216 174 134 119 146 216 269 267 268 259 150 127 115 115 119 106 74 57 57 68 87 101 106 104 100 99 99 97 100 109 111 106 98 92 87 83 82 87 92 95 96 94 90
355 349 343 336 328 313 301 306 306 304 307 311 302 284 280 272 270 257 215 209 228 231 220 222 244 249 243 240 262 269 267 259 278 302 182 178 190 175 156 148 124 142 266 274 184 166 152 149 177 188 266 282 298 80 119 128 120 109 99 89 75 70 74 80 85 91 96 100 103 102 96 89 93 102 108 109 105 97 91 88 86 85 86 88 89 89 88
4 356 342 324 320 319 312 306 303 301 304 302 266 247 257 254 253 265 234 213 228 226 218 227 252 255 249 249 262 269 259 239 238 285 58 159 180 150 79 70 134 157 230 230 174 174 186 168 108 92 309 301 20 70 94 108 103 90 78 76 79 80 81 82 87 92 94 96 98 95 90 91 97 98 95 96 97 96 94 92 86 80 77 75 72 71 75
358 352 340 330 331 334 330 325 318 304 292 276 235 232 248 231 230 246 266 273 267 231 227 244 264 264 254 249 245 245 255 252 243 233 132 184 192 178 120 139 181 193 234 167 169 186 213 77 70 53 280 293 25 69 88 97 94 88 83 78 77 82 86 85 84 86 86 85 85 83 82 86 91 91 87 84 86 86 86 85 81 76 75 74 68 63 66
343 338 335 335 340 342 337 335 337 308 272 267 275 261 248 232 239 244 244 263 291 307 265 256 267 283 283 271 255 245 258 263 240 215 193 191 194 194 197 187 175 146 60 166 182 197 51 64 60 14 288 333 44 71 89 97 96 93 90 83 79 80 87 89 86 83 84 87 88 87 85 83 82 83 86 87 84 82 82 81 78 77 78 80 77 74 73
343 336 332 332 339 344 338 332 343 341 302 289 324 301 283 317 340 313 264 278 297 298 281 276 288 300 306 301 283 263 265 274 249 224 219 211 196 196 197 137 110 93 211 197 171 36 41 53 41 25 30 41 53 62 69 77 85 86 81 81 83 82 84 89 88 83 84 89 89 86 84 85 85 85 86 86 85 83 80 75 71 71 75 78 77 76 78
356 348 335 322 325 340 344 342 349 351 340 323 337 322 311 326 334 323 309 318 315 299 296 299 304 310 314 312 303 277 255 269 269 247 244 277 255 212 66 48 52 84 178 85 49 41 44 33 21 35 47 51 50 46 47 57 72 73 67 72 85 92 93 91 86 79 79 81 80 77 76 80 84 84 82 80 79 79 77 75 72 70 72 75 76 76 79
353 341 329 316 326 349 358 3 355 352 343 311 307 296 296 315 319 310 311 318 311 301 305 312 312 311 312 313 315 322 276 282 300 305 286 306 7 36 41 43 9 1 41 52 41 31 36 21 7 24 39 43 42 46 51 58 67 69 68 69 74 82 91 93 91 86 80 76 75 75 75 76 77 76 74 73 73 73 73 75 75 72 70 71 73 76 79
343 330 328 332 343 350 1 13 344 346 313 281 297 293 289 299 298 291 300 310 312 308 311 314 312 307 309 316 327 332 311 296 321 351 319 321 36 32 3 346 35 32 43 54 42 30 36 26 7 20 32 42 52 60 65 71 77 81 82 80 78 81 87 88 86 84 82 80 82 84 83 81 78 74 72 72 73 72 73 75 77 77 74 71 70 74 78
333 326 332 341 320 328 5 47 324 293 270 282 305 312 310 308 308 308 314 323 326 321 317 314 308 303 301 304 315 320 290 274 349 14 351 347 52 20 336 23 46 37 36 46 42 35 28 23 25 30 36 45 54 60 66 77 86 90 92 90 89 90 91 88 87 86 86 86 87 87 85 83 80 77 76 76 74 74 75 77 79 80 80 77 73 71 70
317 316 326 340 285 287 257 258 280 282 281 291 314 331 337 336 337 342 349 358 2 349 330 318 313 318 330 331 341 6 349 341 15 34 24 163 71 27 22 45 48 37 38 49 46 28 17 31 39 44 45 43 43 42 38 43 65 86 95 96 96 93 88 85 86 87 88 88 87 87 86 85 82 80 80 78 75 74 74 74 74 75 76 76 75 71 66
295 291 300 309 276 285 307 298 273 284 312 327 344 359 2 358 355 358 359 1 2 360 344 325 320 332 343 341 353 19 16 3 1 3 0 23 34 24 24 47 50 41 41 46 31 21 30 42 51 57 58 55 56 58 51 42 47 67 81 89 93 94 90 87 85 85 86 87 87 85 83 82 82 83 83 80 76 73 71 68 66 64 63 65 69 70 69
292 285 323 356 3 352 348 348 350 353 346 347 356 7 6 353 349 358 2 360 358 3 6 0 357 3 354 343 1 35 24 6 6 6 9 20 30 22 25 47 54 47 44 50 48 46 48 51 55 57 58 60 67 72 70 67 69 73 75 77 80 84 88 91 90 86 82 82 83 83 80 77 76 77 77 76 72 67 65 65 63 59 56 56 60 63 66
313 322 11 22 17 6 2 4 6 6 357 350 354 1 1 349 347 360 9 10 11 17 23 13 357 355 3 13 24 25 352 347 13 35 30 22 13 7 28 50 59 58 56 55 56 61 64 63 60 60 61 65 70 73 72 72 75 77 76 75 77 81 85 88 87 83 77 75 77 79 79 77 74 73 72 70 65 60 60 62 64 63 59 53 53 61 71
324 347 22 29 20 12 14 19 11 4 6 6 4 6 7 3 1 9 19 24 26 28 25 13 9 23 33 14 7 3 356 10 32 43 40 30 16 24 44 55 60 65 68 65 63 67 73 73 71 68 65 64 66 69 69 70 73 76 75 74 76 79 81 80 79 79 79 77 75 74 72 71 71 71 70 65 59 55 55 56 59 66 68 61 55 63 76